Time,TemperatureF,DewpointF,PressureIn,WindDirection,WindDirectionDegrees,WindSpeedMPH,WindSpeedGustMPH,Humidity,HourlyPrecipIn,Conditions,Clouds,dailyrainin,SoftwareType,DateUTC
2013-01-27 00:01:00,29.2,19.2,30.36,SE,127,0.0,0.0,66,0.00,,,0.00,Wunderground v.1.15,2013-01-27 06:01:00,
2013-01-27 00:06:00,29.1,19.2,30.36,ESE,103,0.0,1.0,66,0.00,,,0.00,Wunderground v.1.15,2013-01-27 06:06:00,
2013-01-27 00:11:00,29.0,19.1,30.36,ESE,103,0.0,0.0,66,0.00,,,0.00,Wunderground v.1.15,2013-01-27 06:11:00,
2013-01-27 00:16:00,28.9,19.0,30.35,ESE,103,0.0,0.0,66,0.00,,,0.00,Wunderground v.1.15,2013-01-27 06:16:00,
2013-01-27 00:21:00,28.7,19.1,30.35,ESE,103,0.0,0.0,67,0.00,,,0.00,Wunderground v.1.15,2013-01-27 06:21:00,
2013-01-27 00:26:00,28.5,18.9,30.35,SE,124,0.0,0.0,67,0.00,,,0.00,Wunderground v.1.15,2013-01-27 06:26:00,
2013-01-27 00:31:00,28.5,18.9,30.35,ESE,103,0.0,0.0,67,0.00,,,0.00,Wunderground v.1.15,2013-01-27 06:31:00,
2013-01-27 00:36:00,28.4,19.2,30.35,ESE,103,0.0,0.0,68,0.00,,,0.00,Wunderground v.1.15,2013-01-27 06:36:00,
2013-01-27 00:46:00,28.3,19.1,30.34,ESE,103,0.0,0.0,68,0.00,,,0.00,Wunderground v.1.15,2013-01-27 06:46:00,
2013-01-27 00:51:00,28.2,19.3,30.34,ESE,105,0.0,0.0,69,0.00,,,0.00,Wunderground v.1.15,2013-01-27 06:51:00,
2013-01-27 00:56:00,28.2,19.3,30.34,ESE,103,0.0,0.0,69,0.00,,,0.00,Wunderground v.1.15,2013-01-27 06:56:00,
2013-01-27 01:01:00,28.2,19.3,30.34,East,100,0.0,0.0,69,0.00,,,0.00,Wunderground v.1.15,2013-01-27 07:01:00,
2013-01-27 01:06:00,28.2,19.3,30.34,East,101,0.0,0.0,69,0.00,,,0.00,Wunderground v.1.15,2013-01-27 07:06:00,
2013-01-27 01:16:00,27.7,19.2,30.35,East,101,0.0,0.0,70,0.00,,,0.00,Wunderground v.1.15,2013-01-27 07:16:00,
2013-01-27 01:21:00,27.5,19.3,30.35,ESE,102,0.0,0.0,71,0.00,,,0.00,Wunderground v.1.15,2013-01-27 07:21:00,
2013-01-27 01:26:00,27.3,19.1,30.35,ESE,102,0.0,0.0,71,0.00,,,0.00,Wunderground v.1.15,2013-01-27 07:26:00,
2013-01-27 01:31:00,27.1,18.9,30.35,East,101,0.0,0.0,71,0.00,,,0.00,Wunderground v.1.15,2013-01-27 07:31:00,
2013-01-27 01:36:00,27.0,19.2,30.35,ESE,102,0.0,0.0,72,0.00,,,0.00,Wunderground v.1.15,2013-01-27 07:36:00,
2013-01-27 01:41:00,27.1,19.3,30.35,East,101,0.0,0.0,72,0.00,,,0.00,Wunderground v.1.15,2013-01-27 07:41:00,
2013-01-27 01:46:00,27.3,19.5,30.35,ESE,110,0.0,0.0,72,0.00,,,0.00,Wunderground v.1.15,2013-01-27 07:46:00,
2013-01-27 01:51:00,27.5,19.3,30.34,ESE,110,0.0,0.0,71,0.00,,,0.00,Wunderground v.1.15,2013-01-27 07:51:00,
2013-01-27 02:01:00,27.8,19.6,30.35,ESE,115,0.0,0.0,71,0.00,,,0.00,Wunderground v.1.15,2013-01-27 08:01:00,
2013-01-27 02:06:00,28.0,19.8,30.35,ESE,115,0.0,0.0,71,0.00,,,0.00,Wunderground v.1.15,2013-01-27 08:06:00,
2013-01-27 02:11:00,28.0,20.1,30.34,East,91,0.0,1.0,72,0.00,,,0.00,Wunderground v.1.15,2013-01-27 08:11:00,
2013-01-27 02:16:00,28.1,19.9,30.33,East,85,0.0,1.0,71,0.00,,,0.00,Wunderground v.1.15,2013-01-27 08:16:00,
2013-01-27 02:21:00,28.3,19.8,30.33,East,101,1.0,1.0,70,0.00,,,0.00,Wunderground v.1.15,2013-01-27 08:21:00,
2013-01-27 02:26:00,28.3,19.8,30.34,SE,126,0.0,1.0,70,0.00,,,0.00,Wunderground v.1.15,2013-01-27 08:26:00,
2013-01-27 02:31:00,28.4,19.9,30.33,East,81,0.0,2.0,70,0.00,,,0.00,Wunderground v.1.15,2013-01-27 08:31:00,
2013-01-27 02:36:00,28.5,20.0,30.33,SE,141,1.0,2.0,70,0.00,,,0.00,Wunderground v.1.15,2013-01-27 08:36:00,
2013-01-27 02:41:00,28.6,20.1,30.34,SE,140,0.0,0.0,70,0.00,,,0.00,Wunderground v.1.15,2013-01-27 08:41:00,
2013-01-27 02:46:00,28.7,20.1,30.34,East,97,0.0,0.0,70,0.00,,,0.00,Wunderground v.1.15,2013-01-27 08:46:00,
2013-01-27 02:51:00,28.8,20.2,30.35,SSW,201,0.0,0.0,70,0.00,,,0.00,Wunderground v.1.15,2013-01-27 08:51:00,
2013-01-27 02:56:00,28.8,19.9,30.35,ESE,104,0.0,0.0,69,0.00,,,0.00,Wunderground v.1.15,2013-01-27 08:56:00,
2013-01-27 03:01:00,29.0,20.1,30.35,SSE,148,0.0,0.0,69,0.00,,,0.00,Wunderground v.1.15,2013-01-27 09:01:00,
2013-01-27 03:06:00,29.1,20.2,30.35,SE,129,0.0,0.0,69,0.00,,,0.00,Wunderground v.1.15,2013-01-27 09:06:00,
2013-01-27 03:11:00,29.2,20.3,30.34,East,79,0.0,0.0,69,0.00,,,0.00,Wunderground v.1.15,2013-01-27 09:11:00,
2013-01-27 03:16:00,29.2,20.3,30.34,East,101,1.0,1.0,69,0.00,,,0.00,Wunderground v.1.15,2013-01-27 09:16:00,
2013-01-27 03:21:00,29.2,20.3,30.34,East,98,1.0,1.0,69,0.00,,,0.00,Wunderground v.1.15,2013-01-27 09:21:00,
2013-01-27 03:26:00,29.3,20.4,30.34,East,99,0.0,1.0,69,0.00,,,0.00,Wunderground v.1.15,2013-01-27 09:26:00,
2013-01-27 03:31:00,29.3,20.4,30.33,ESE,110,0.0,0.0,69,0.00,,,0.00,Wunderground v.1.15,2013-01-27 09:31:00,
2013-01-27 03:36:00,29.4,20.5,30.33,East,101,0.0,0.0,69,0.00,,,0.00,Wunderground v.1.15,2013-01-27 09:36:00,
2013-01-27 03:46:00,29.5,20.6,30.32,East,98,0.0,2.0,69,0.00,,,0.00,Wunderground v.1.15,2013-01-27 09:46:00,
2013-01-27 03:51:00,29.6,20.3,30.31,ESE,104,0.0,0.0,68,0.00,,,0.00,Wunderground v.1.15,2013-01-27 09:51:00,
2013-01-27 03:56:00,29.7,20.4,30.31,ESE,122,1.0,1.0,68,0.00,,,0.00,Wunderground v.1.15,2013-01-27 09:56:00,
2013-01-27 04:06:00,30.0,20.7,30.31,SE,128,1.0,1.0,68,0.00,,,0.00,Wunderground v.1.15,2013-01-27 10:06:00,
2013-01-27 04:11:00,30.1,20.5,30.32,East,87,1.0,1.0,67,0.00,,,0.00,Wunderground v.1.15,2013-01-27 10:11:00,
2013-01-27 04:16:00,30.2,20.6,30.32,ESE,108,1.0,1.0,67,0.00,,,0.00,Wunderground v.1.15,2013-01-27 10:16:00,
2013-01-27 04:21:00,30.2,20.6,30.31,East,101,1.0,1.0,67,0.00,,,0.00,Wunderground v.1.15,2013-01-27 10:21:00,
2013-01-27 04:26:00,30.2,20.6,30.31,East,101,1.0,1.0,67,0.00,,,0.00,Wunderground v.1.15,2013-01-27 10:26:00,
2013-01-27 04:31:00,30.4,20.7,30.30,SE,124,1.0,1.0,67,0.00,,,0.00,Wunderground v.1.15,2013-01-27 10:31:00,
2013-01-27 04:36:00,30.4,20.7,30.30,ESE,122,1.0,2.0,67,0.00,,,0.00,Wunderground v.1.15,2013-01-27 10:36:00,
2013-01-27 04:41:00,30.4,20.7,30.29,ESE,115,2.0,2.0,67,0.00,,,0.00,Wunderground v.1.15,2013-01-27 10:41:00,
2013-01-27 04:46:00,30.5,20.8,30.30,East,88,2.0,2.0,67,0.00,,,0.00,Wunderground v.1.15,2013-01-27 10:46:00,
2013-01-27 04:51:00,30.5,20.5,30.30,SE,127,2.0,3.0,66,0.00,,,0.00,Wunderground v.1.15,2013-01-27 10:51:00,
2013-01-27 04:56:00,30.6,20.9,30.30,East,101,1.0,3.0,67,0.00,,,0.00,Wunderground v.1.15,2013-01-27 10:56:00,
2013-01-27 05:01:00,30.6,20.9,30.31,ESE,105,1.0,2.0,67,0.00,,,0.00,Wunderground v.1.15,2013-01-27 11:01:00,
2013-01-27 05:06:00,30.7,21.0,30.31,SE,126,1.0,2.0,67,0.00,,,0.00,Wunderground v.1.15,2013-01-27 11:06:00,
2013-01-27 05:11:00,30.8,21.1,30.31,ESE,108,1.0,1.0,67,0.00,,,0.00,Wunderground v.1.15,2013-01-27 11:11:00,
2013-01-27 05:16:00,30.8,21.1,30.31,ESE,116,0.0,1.0,67,0.00,,,0.00,Wunderground v.1.15,2013-01-27 11:16:00,
2013-01-27 05:21:00,30.9,21.6,30.31,ESE,116,0.0,0.0,68,0.00,,,0.00,Wunderground v.1.15,2013-01-27 11:21:00,
2013-01-27 05:26:00,30.8,21.8,30.30,ESE,122,1.0,1.0,69,0.00,,,0.00,Wunderground v.1.15,2013-01-27 11:26:00,
2013-01-27 05:31:00,30.8,22.2,30.30,SE,134,1.0,1.0,70,0.00,,,0.00,Wunderground v.1.15,2013-01-27 11:31:00,
2013-01-27 05:36:00,30.8,22.8,30.30,ESE,108,1.0,1.0,72,0.00,,,0.00,Wunderground v.1.15,2013-01-27 11:36:00,
2013-01-27 05:41:00,30.8,23.5,30.30,ESE,105,1.0,1.0,74,0.00,,,0.00,Wunderground v.1.15,2013-01-27 11:41:00,
2013-01-27 05:46:00,30.8,23.8,30.30,ESE,113,1.0,1.0,75,0.00,,,0.00,Wunderground v.1.15,2013-01-27 11:46:00,
2013-01-27 05:56:00,30.7,24.7,30.30,SE,124,0.0,1.0,78,0.00,,,0.00,Wunderground v.1.15,2013-01-27 11:56:00,
2013-01-27 06:01:00,30.7,24.7,30.29,ESE,105,0.0,0.0,78,0.00,,,0.00,Wunderground v.1.15,2013-01-27 12:01:00,
2013-01-27 06:06:00,30.6,25.5,30.29,East,96,0.0,1.0,81,0.00,,,0.00,Wunderground v.1.15,2013-01-27 12:06:00,
2013-01-27 06:11:00,30.5,25.1,30.30,SE,137,0.0,0.0,80,0.00,,,0.00,Wunderground v.1.15,2013-01-27 12:11:00,
2013-01-27 06:21:00,30.4,25.0,30.29,East,101,1.0,2.0,80,0.00,,,0.00,Wunderground v.1.15,2013-01-27 12:21:00,
2013-01-27 06:26:00,30.3,25.2,30.29,SE,129,1.0,2.0,81,0.00,,,0.00,Wunderground v.1.15,2013-01-27 12:26:00,
2013-01-27 06:31:00,30.3,25.2,30.30,East,79,1.0,1.0,81,0.00,,,0.00,Wunderground v.1.15,2013-01-27 12:31:00,
2013-01-27 06:36:00,30.3,25.8,30.30,ESE,117,1.0,1.0,83,0.00,,,0.00,Wunderground v.1.15,2013-01-27 12:36:00,
2013-01-27 06:41:00,30.3,25.8,30.29,SE,124,1.0,1.0,83,0.00,,,0.00,Wunderground v.1.15,2013-01-27 12:41:00,
2013-01-27 06:46:00,30.3,25.8,30.29,SE,129,1.0,1.0,83,0.00,,,0.00,Wunderground v.1.15,2013-01-27 12:46:00,
2013-01-27 06:51:00,30.3,26.3,30.28,ESE,102,1.0,2.0,85,0.00,,,0.00,Wunderground v.1.15,2013-01-27 12:51:00,
2013-01-27 06:56:00,30.3,26.3,30.28,ESE,111,1.0,2.0,85,0.00,,,0.00,Wunderground v.1.15,2013-01-27 12:56:00,
2013-01-27 07:01:00,30.3,26.3,30.27,East,92,1.0,1.0,85,0.00,,,0.00,Wunderground v.1.15,2013-01-27 13:01:00,
2013-01-27 07:11:00,30.4,27.0,30.27,East,82,1.0,2.0,87,0.00,,,0.00,Wunderground v.1.15,2013-01-27 13:11:00,
2013-01-27 07:21:00,30.6,27.2,30.26,East,95,1.0,2.0,87,0.00,,,0.00,Wunderground v.1.15,2013-01-27 13:21:00,
2013-01-27 07:31:00,30.8,27.4,30.28,ESE,115,1.0,1.0,87,0.00,,,0.00,Wunderground v.1.15,2013-01-27 13:31:00,
2013-01-27 07:41:00,31.0,27.9,30.29,ESE,103,0.0,0.0,88,0.00,,,0.00,Wunderground v.1.15,2013-01-27 13:41:00,
2013-01-27 07:46:00,31.2,27.8,30.29,ESE,120,0.0,0.0,87,0.00,,,0.00,Wunderground v.1.15,2013-01-27 13:46:00,
2013-01-27 07:56:00,31.4,28.0,30.28,ESE,105,1.0,1.0,87,0.00,,,0.00,Wunderground v.1.15,2013-01-27 13:56:00,
2013-01-27 08:01:00,31.5,28.4,30.28,ESE,115,1.0,1.0,88,0.00,,,0.00,Wunderground v.1.15,2013-01-27 14:01:00,
2013-01-27 08:06:00,31.6,28.2,30.28,ESE,122,1.0,1.0,87,0.00,,,0.00,Wunderground v.1.15,2013-01-27 14:06:00,
2013-01-27 08:11:00,31.6,28.5,30.28,SSE,148,1.0,1.0,88,0.00,,,0.00,Wunderground v.1.15,2013-01-27 14:11:00,
2013-01-27 08:16:00,31.7,28.6,30.28,SE,141,0.0,1.0,88,0.00,,,0.00,Wunderground v.1.15,2013-01-27 14:16:00,
2013-01-27 08:21:00,31.8,28.7,30.28,ESE,117,0.0,0.0,88,0.00,,,0.00,Wunderground v.1.15,2013-01-27 14:21:00,
2013-01-27 08:26:00,31.9,28.8,30.29,East,101,0.0,0.0,88,0.00,,,0.00,Wunderground v.1.15,2013-01-27 14:26:00,
2013-01-27 08:36:00,32.1,28.9,30.28,ESE,110,0.0,0.0,88,0.00,,,0.00,Wunderground v.1.15,2013-01-27 14:36:00,
2013-01-27 08:41:00,32.1,28.9,30.28,ESE,103,1.0,1.0,88,0.00,,,0.00,Wunderground v.1.15,2013-01-27 14:41:00,
2013-01-27 08:46:00,32.2,29.0,30.28,East,89,1.0,1.0,88,0.00,,,0.00,Wunderground v.1.15,2013-01-27 14:46:00,
2013-01-27 08:51:00,32.2,29.0,30.28,ESE,110,1.0,1.0,88,0.00,,,0.00,Wunderground v.1.15,2013-01-27 14:51:00,
2013-01-27 08:56:00,32.3,29.4,30.27,ESE,112,1.0,2.0,89,0.00,,,0.00,Wunderground v.1.15,2013-01-27 14:56:00,
2013-01-27 09:01:00,32.3,29.4,30.27,SE,124,2.0,3.0,89,0.00,,,0.00,Wunderground v.1.15,2013-01-27 15:01:00,
2013-01-27 09:06:00,32.3,29.4,30.26,ESE,115,1.0,3.0,89,0.00,,,0.00,Wunderground v.1.15,2013-01-27 15:06:00,
2013-01-27 09:16:00,32.3,29.7,30.26,ESE,110,1.0,1.0,90,0.00,,,0.00,Wunderground v.1.15,2013-01-27 15:16:00,
2013-01-27 09:21:00,32.3,29.7,30.26,SE,133,1.0,3.0,90,0.00,,,0.00,Wunderground v.1.15,2013-01-27 15:21:00,
2013-01-27 09:26:00,32.3,29.7,30.26,SE,145,1.0,3.0,90,0.00,,,0.00,Wunderground v.1.15,2013-01-27 15:26:00,
2013-01-27 09:31:00,32.3,29.7,30.26,SE,146,1.0,1.0,90,0.00,,,0.00,Wunderground v.1.15,2013-01-27 15:31:00,
2013-01-27 09:36:00,32.3,30.0,30.26,ESE,103,1.0,1.0,91,0.00,,,0.00,Wunderground v.1.15,2013-01-27 15:36:00,
2013-01-27 09:41:00,32.4,30.1,30.26,SE,140,1.0,1.0,91,0.00,,,0.00,Wunderground v.1.15,2013-01-27 15:41:00,
2013-01-27 09:46:00,32.3,30.0,30.26,ESE,111,1.0,1.0,91,0.00,,,0.00,Wunderground v.1.15,2013-01-27 15:46:00,
2013-01-27 09:51:00,32.4,30.3,30.26,ESE,115,1.0,2.0,92,0.00,,,0.00,Wunderground v.1.15,2013-01-27 15:51:00,
2013-01-27 09:56:00,32.4,30.3,30.26,SE,142,0.0,2.0,92,0.00,,,0.00,Wunderground v.1.15,2013-01-27 15:56:00,
2013-01-27 10:01:00,32.5,30.4,30.27,SE,124,0.0,1.0,92,0.00,,,0.00,Wunderground v.1.15,2013-01-27 16:01:00,
2013-01-27 10:06:00,32.5,30.4,30.26,ESE,103,0.0,2.0,92,0.00,,,0.00,Wunderground v.1.15,2013-01-27 16:06:00,
2013-01-27 10:11:00,32.5,30.4,30.26,East,95,1.0,2.0,92,0.00,,,0.00,Wunderground v.1.15,2013-01-27 16:11:00,
2013-01-27 10:16:00,32.6,30.5,30.25,East,98,2.0,2.0,92,0.00,,,0.00,Wunderground v.1.15,2013-01-27 16:16:00,
2013-01-27 10:26:00,32.7,30.9,30.25,East,85,2.0,3.0,93,0.00,,,0.00,Wunderground v.1.15,2013-01-27 16:26:00,
2013-01-27 10:31:00,32.7,30.9,30.25,ESE,116,1.0,1.0,93,0.00,,,0.00,Wunderground v.1.15,2013-01-27 16:31:00,
2013-01-27 10:41:00,32.8,31.0,30.24,ESE,111,1.0,2.0,93,0.00,,,0.00,Wunderground v.1.15,2013-01-27 16:41:00,
2013-01-27 10:51:00,32.8,31.3,30.24,ESE,111,1.0,1.0,94,0.00,,,0.00,Wunderground v.1.15,2013-01-27 16:51:00,
2013-01-27 10:56:00,32.8,31.3,30.24,ESE,122,1.0,1.0,94,0.00,,,0.00,Wunderground v.1.15,2013-01-27 16:56:00,
2013-01-27 11:01:00,32.9,31.4,30.23,SE,126,1.0,1.0,94,0.00,,,0.00,Wunderground v.1.15,2013-01-27 17:01:00,
2013-01-27 11:11:00,33.1,31.6,30.22,East,101,1.0,2.0,94,0.00,,,0.00,Wunderground v.1.15,2013-01-27 17:11:00,
2013-01-27 11:16:00,33.2,31.7,30.22,ESE,115,1.0,2.0,94,0.00,,,0.00,Wunderground v.1.15,2013-01-27 17:16:00,
2013-01-27 11:21:00,33.3,31.8,30.21,SE,141,1.0,2.0,94,0.00,,,0.00,Wunderground v.1.15,2013-01-27 17:21:00,
2013-01-27 11:26:00,33.4,32.1,30.20,ESE,117,2.0,2.0,95,0.00,,,0.00,Wunderground v.1.15,2013-01-27 17:26:00,
2013-01-27 11:31:00,33.6,32.3,30.20,SSW,193,1.0,1.0,95,0.00,,,0.00,Wunderground v.1.15,2013-01-27 17:31:00,
2013-01-27 11:36:00,33.7,32.4,30.20,SE,134,1.0,1.0,95,0.00,,,0.00,Wunderground v.1.15,2013-01-27 17:36:00,
2013-01-27 11:46:00,34.0,32.7,30.19,East,93,1.0,1.0,95,0.00,,,0.00,Wunderground v.1.15,2013-01-27 17:46:00,
2013-01-27 11:51:00,34.1,32.8,30.19,East,87,1.0,2.0,95,0.00,,,0.00,Wunderground v.1.15,2013-01-27 17:51:00,
2013-01-27 11:56:00,34.2,32.9,30.18,ESE,104,1.0,2.0,95,0.00,,,0.00,Wunderground v.1.15,2013-01-27 17:56:00,
2013-01-27 12:06:00,34.4,33.1,30.17,ESE,122,1.0,1.0,95,0.00,,,0.00,Wunderground v.1.15,2013-01-27 18:06:00,
2013-01-27 12:11:00,34.4,33.1,30.17,SE,131,0.0,0.0,95,0.00,,,0.00,Wunderground v.1.15,2013-01-27 18:11:00,
2013-01-27 12:16:00,34.5,33.2,30.16,SE,128,1.0,1.0,95,0.00,,,0.00,Wunderground v.1.15,2013-01-27 18:16:00,
2013-01-27 12:21:00,34.7,33.4,30.16,ESE,112,1.0,3.0,95,0.00,,,0.00,Wunderground v.1.15,2013-01-27 18:21:00,
2013-01-27 12:26:00,34.9,33.6,30.14,SW,222,1.0,3.0,95,0.00,,,0.00,Wunderground v.1.15,2013-01-27 18:26:00,
2013-01-27 12:31:00,35.1,33.8,30.14,SE,133,2.0,2.0,95,0.00,,,0.00,Wunderground v.1.15,2013-01-27 18:31:00,
2013-01-27 12:36:00,35.3,34.0,30.14,East,94,2.0,2.0,95,0.00,,,0.00,Wunderground v.1.15,2013-01-27 18:36:00,
2013-01-27 12:41:00,35.4,34.1,30.14,ESE,103,2.0,2.0,95,0.00,,,0.00,Wunderground v.1.15,2013-01-27 18:41:00,
2013-01-27 12:46:00,35.5,34.2,30.14,East,92,1.0,2.0,95,0.00,,,0.00,Wunderground v.1.15,2013-01-27 18:46:00,
2013-01-27 12:51:00,35.6,34.3,30.14,ESE,120,0.0,0.0,95,0.00,,,0.00,Wunderground v.1.15,2013-01-27 18:51:00,
2013-01-27 12:56:00,35.7,34.4,30.13,ESE,103,0.0,0.0,95,0.00,,,0.00,Wunderground v.1.15,2013-01-27 18:56:00,
2013-01-27 13:01:00,35.8,34.5,30.13,WSW,248,0.0,0.0,95,0.00,,,0.00,Wunderground v.1.15,2013-01-27 19:01:00,
2013-01-27 13:11:00,36.2,34.9,30.12,ESE,105,1.0,1.0,95,0.00,,,0.00,Wunderground v.1.15,2013-01-27 19:11:00,
2013-01-27 13:16:00,36.3,35.0,30.12,SSE,160,1.0,1.0,95,0.00,,,0.00,Wunderground v.1.15,2013-01-27 19:16:00,
2013-01-27 13:21:00,36.5,35.2,30.12,East,96,0.0,0.0,95,0.00,,,0.00,Wunderground v.1.15,2013-01-27 19:21:00,
2013-01-27 13:26:00,36.6,35.3,30.11,SE,126,0.0,0.0,95,0.00,,,0.00,Wunderground v.1.15,2013-01-27 19:26:00,
2013-01-27 13:36:00,36.9,35.6,30.11,SE,128,0.0,0.0,95,0.00,,,0.00,Wunderground v.1.15,2013-01-27 19:36:00,
2013-01-27 13:41:00,37.1,35.8,30.11,East,91,0.0,0.0,95,0.00,,,0.00,Wunderground v.1.15,2013-01-27 19:41:00,
2013-01-27 13:46:00,37.2,35.9,30.11,ESE,120,0.0,0.0,95,0.00,,,0.00,Wunderground v.1.15,2013-01-27 19:46:00,
2013-01-27 13:56:00,37.5,36.2,30.11,SSE,157,0.0,1.0,95,0.00,,,0.00,Wunderground v.1.15,2013-01-27 19:56:00,
2013-01-27 14:01:00,37.7,36.4,30.10,SE,127,0.0,1.0,95,0.00,,,0.00,Wunderground v.1.15,2013-01-27 20:01:00,
2013-01-27 14:06:00,37.8,36.5,30.10,SE,127,0.0,1.0,95,0.00,,,0.00,Wunderground v.1.15,2013-01-27 20:06:00,
2013-01-27 14:11:00,37.9,36.6,30.10,SE,127,0.0,0.0,95,0.00,,,0.00,Wunderground v.1.15,2013-01-27 20:11:00,
2013-01-27 14:16:00,38.1,37.1,30.10,South,177,0.0,0.0,96,0.00,,,0.00,Wunderground v.1.15,2013-01-27 20:16:00,
2013-01-27 14:21:00,38.3,37.3,30.10,SSE,165,0.0,0.0,96,0.00,,,0.00,Wunderground v.1.15,2013-01-27 20:21:00,
2013-01-27 14:26:00,38.5,37.5,30.09,SSE,166,0.0,0.0,96,0.00,,,0.00,Wunderground v.1.15,2013-01-27 20:26:00,
2013-01-27 14:31:00,38.7,37.7,30.09,SE,132,0.0,0.0,96,0.00,,,0.00,Wunderground v.1.15,2013-01-27 20:31:00,
2013-01-27 14:36:00,38.9,37.9,30.09,SE,124,0.0,0.0,96,0.00,,,0.00,Wunderground v.1.15,2013-01-27 20:36:00,
2013-01-27 14:41:00,39.0,38.0,30.09,ESE,105,0.0,0.0,96,0.00,,,0.00,Wunderground v.1.15,2013-01-27 20:41:00,
2013-01-27 14:46:00,39.1,38.1,30.09,SSE,155,0.0,0.0,96,0.00,,,0.00,Wunderground v.1.15,2013-01-27 20:46:00,
2013-01-27 14:51:00,39.3,38.3,30.08,ESE,122,0.0,0.0,96,0.00,,,0.00,Wunderground v.1.15,2013-01-27 20:51:00,
2013-01-27 14:56:00,39.5,38.5,30.08,SSE,160,0.0,0.0,96,0.00,,,0.00,Wunderground v.1.15,2013-01-27 20:56:00,
2013-01-27 15:01:00,39.6,38.6,30.07,South,184,0.0,0.0,96,0.00,,,0.00,Wunderground v.1.15,2013-01-27 21:01:00,
2013-01-27 15:06:00,39.8,38.8,30.08,ESE,107,0.0,1.0,96,0.00,,,0.00,Wunderground v.1.15,2013-01-27 21:06:00,
2013-01-27 15:16:00,40.2,39.2,30.07,SE,126,1.0,1.0,96,0.00,,,0.00,Wunderground v.1.15,2013-01-27 21:16:00,
2013-01-27 15:21:00,40.3,39.3,30.07,SE,130,0.0,0.0,96,0.00,,,0.00,Wunderground v.1.15,2013-01-27 21:21:00,
2013-01-27 15:26:00,40.5,39.4,30.07,ESE,121,0.0,0.0,96,0.00,,,0.00,Wunderground v.1.15,2013-01-27 21:26:00,
2013-01-27 15:31:00,40.6,39.5,30.07,ESE,121,0.0,0.0,96,0.00,,,0.00,Wunderground v.1.15,2013-01-27 21:31:00,
2013-01-27 15:36:00,40.8,39.7,30.07,SSE,147,0.0,0.0,96,0.00,,,0.00,Wunderground v.1.15,2013-01-27 21:36:00,
2013-01-27 15:41:00,40.9,39.8,30.06,NW,326,0.0,0.0,96,0.00,,,0.00,Wunderground v.1.15,2013-01-27 21:41:00,
2013-01-27 15:46:00,41.1,40.0,30.06,ESE,111,0.0,2.0,96,0.00,,,0.00,Wunderground v.1.15,2013-01-27 21:46:00,
2013-01-27 15:51:00,41.4,40.3,30.06,South,186,0.0,0.0,96,0.00,,,0.00,Wunderground v.1.15,2013-01-27 21:51:00,
2013-01-27 15:56:00,41.6,40.5,30.06,ESE,115,0.0,0.0,96,0.00,,,0.00,Wunderground v.1.15,2013-01-27 21:56:00,
2013-01-27 16:01:00,41.8,40.7,30.05,ESE,113,0.0,0.0,96,0.00,,,0.00,Wunderground v.1.15,2013-01-27 22:01:00,
2013-01-27 16:11:00,42.2,41.1,30.05,SE,136,1.0,1.0,96,0.00,,,0.00,Wunderground v.1.15,2013-01-27 22:11:00,
2013-01-27 16:16:00,42.4,41.3,30.05,ESE,122,1.0,1.0,96,0.00,,,0.00,Wunderground v.1.15,2013-01-27 22:16:00,
2013-01-27 16:21:00,42.6,41.5,30.05,WSW,253,0.0,1.0,96,0.00,,,0.00,Wunderground v.1.15,2013-01-27 22:21:00,
2013-01-27 16:26:00,42.7,41.6,30.05,SSE,153,0.0,1.0,96,0.00,,,0.00,Wunderground v.1.15,2013-01-27 22:26:00,
2013-01-27 16:31:00,42.9,41.8,30.05,ESE,112,1.0,1.0,96,0.00,,,0.00,Wunderground v.1.15,2013-01-27 22:31:00,
2013-01-27 16:36:00,42.9,41.8,30.05,NE,37,0.0,1.0,96,0.00,,,0.00,Wunderground v.1.15,2013-01-27 22:36:00,
2013-01-27 16:46:00,43.1,42.0,30.05,ESE,120,0.0,2.0,96,0.00,,,0.00,Wunderground v.1.15,2013-01-27 22:46:00,
2013-01-27 16:51:00,43.2,42.1,30.04,West,278,1.0,1.0,96,0.00,,,0.00,Wunderground v.1.15,2013-01-27 22:51:00,
2013-01-27 16:56:00,43.4,42.3,30.03,SSE,147,1.0,2.0,96,0.00,,,0.00,Wunderground v.1.15,2013-01-27 22:56:00,
2013-01-27 17:01:00,43.4,42.3,30.04,SSE,168,1.0,1.0,96,0.00,,,0.00,Wunderground v.1.15,2013-01-27 23:01:00,
2013-01-27 17:06:00,43.4,42.3,30.02,South,170,1.0,3.0,96,0.00,,,0.00,Wunderground v.1.15,2013-01-27 23:06:00,
2013-01-27 17:16:00,43.5,42.4,30.02,ESE,117,1.0,3.0,96,0.00,,,0.00,Wunderground v.1.15,2013-01-27 23:16:00,
2013-01-27 17:21:00,43.5,42.4,30.02,SSE,158,1.0,2.0,96,0.00,,,0.00,Wunderground v.1.15,2013-01-27 23:21:00,
2013-01-27 17:26:00,43.5,42.4,30.02,NNW,340,1.0,2.0,96,0.00,,,0.00,Wunderground v.1.15,2013-01-27 23:26:00,
2013-01-27 17:31:00,43.5,42.4,30.02,SSW,198,1.0,1.0,96,0.00,,,0.00,Wunderground v.1.15,2013-01-27 23:31:00,
2013-01-27 17:36:00,43.5,42.4,30.02,ENE,68,1.0,1.0,96,0.00,,,0.00,Wunderground v.1.15,2013-01-27 23:36:00,
2013-01-27 17:41:00,43.7,42.6,30.02,ENE,75,0.0,2.0,96,0.00,,,0.00,Wunderground v.1.15,2013-01-27 23:41:00,
2013-01-27 17:46:00,43.7,42.6,30.02,SE,129,0.0,2.0,96,0.00,,,0.00,Wunderground v.1.15,2013-01-27 23:46:00,
2013-01-27 17:51:00,43.8,42.7,30.02,East,101,0.0,1.0,96,0.00,,,0.00,Wunderground v.1.15,2013-01-27 23:51:00,
2013-01-27 17:56:00,43.9,42.8,30.03,East,95,1.0,1.0,96,0.00,,,0.00,Wunderground v.1.15,2013-01-27 23:56:00,
2013-01-27 18:01:00,43.9,42.8,30.03,SE,128,1.0,1.0,96,0.00,,,0.00,Wunderground v.1.15,2013-01-28 00:01:00,
2013-01-27 18:06:00,43.9,42.8,30.03,ESE,108,0.0,1.0,96,0.00,,,0.00,Wunderground v.1.15,2013-01-28 00:06:00,
2013-01-27 18:11:00,43.9,42.8,30.03,WSW,253,0.0,0.0,96,0.00,,,0.00,Wunderground v.1.15,2013-01-28 00:11:00,
2013-01-27 18:16:00,43.9,42.8,30.03,South,183,0.0,1.0,96,0.00,,,0.00,Wunderground v.1.15,2013-01-28 00:16:00,
2013-01-27 18:21:00,43.9,42.8,30.02,East,97,0.0,0.0,96,0.00,,,0.00,Wunderground v.1.15,2013-01-28 00:21:00,
2013-01-27 18:26:00,43.9,42.8,30.02,East,98,0.0,0.0,96,0.00,,,0.00,Wunderground v.1.15,2013-01-28 00:26:00,
2013-01-27 18:31:00,43.9,42.8,30.03,SE,127,0.0,0.0,96,0.00,,,0.00,Wunderground v.1.15,2013-01-28 00:31:00,
2013-01-27 18:41:00,44.0,42.9,30.03,ESE,115,0.0,0.0,96,0.00,,,0.00,Wunderground v.1.15,2013-01-28 00:41:00,
2013-01-27 18:46:00,44.1,43.0,30.02,SSE,159,0.0,0.0,96,0.00,,,0.00,Wunderground v.1.15,2013-01-28 00:46:00,
2013-01-27 18:51:00,44.2,43.1,30.03,SE,124,1.0,1.0,96,0.00,,,0.00,Wunderground v.1.15,2013-01-28 00:51:00,
2013-01-27 18:56:00,44.2,43.1,30.03,SSE,152,1.0,1.0,96,0.00,,,0.00,Wunderground v.1.15,2013-01-28 00:56:00,
2013-01-27 19:01:00,44.3,43.2,30.02,ESE,122,0.0,0.0,96,0.00,,,0.00,Wunderground v.1.15,2013-01-28 01:01:00,
2013-01-27 19:06:00,44.4,43.6,30.03,ENE,69,0.0,1.0,97,0.00,,,0.00,Wunderground v.1.15,2013-01-28 01:06:00,
2013-01-27 19:11:00,44.6,43.8,30.03,ESE,119,0.0,0.0,97,0.00,,,0.00,Wunderground v.1.15,2013-01-28 01:11:00,
2013-01-27 19:21:00,44.7,43.6,30.03,ESE,108,0.0,0.0,96,0.00,,,0.00,Wunderground v.1.15,2013-01-28 01:21:00,
2013-01-27 19:26:00,44.8,44.0,30.03,East,88,0.0,0.0,97,0.00,,,0.00,Wunderground v.1.15,2013-01-28 01:26:00,
2013-01-27 19:31:00,44.9,44.1,30.03,SE,127,0.0,0.0,97,0.00,,,0.00,Wunderground v.1.15,2013-01-28 01:31:00,
2013-01-27 19:41:00,44.9,43.8,30.03,ENE,60,0.0,0.0,96,0.00,,,0.00,Wunderground v.1.15,2013-01-28 01:41:00,
2013-01-27 19:46:00,45.0,43.9,30.03,ENE,64,0.0,0.0,96,0.00,,,0.00,Wunderground v.1.15,2013-01-28 01:46:00,
2013-01-27 19:51:00,45.0,43.9,30.04,ENE,64,0.0,0.0,96,0.00,,,0.00,Wunderground v.1.15,2013-01-28 01:51:00,
2013-01-27 19:56:00,45.1,44.0,30.04,ENE,63,0.0,0.0,96,0.00,,,0.00,Wunderground v.1.15,2013-01-28 01:56:00,
2013-01-27 20:01:00,45.1,44.3,30.03,ENE,63,0.0,0.0,97,0.00,,,0.00,Wunderground v.1.15,2013-01-28 02:01:00,
2013-01-27 20:11:00,45.5,44.7,30.03,SSE,158,0.0,0.0,97,0.00,,,0.00,Wunderground v.1.15,2013-01-28 02:11:00,
2013-01-27 20:16:00,45.8,45.0,30.03,ESE,113,0.0,0.0,97,0.00,,,0.00,Wunderground v.1.15,2013-01-28 02:16:00,
2013-01-27 20:21:00,46.4,45.6,30.03,East,84,0.0,2.0,97,0.00,,,0.00,Wunderground v.1.15,2013-01-28 02:21:00,
2013-01-27 20:31:00,47.1,46.6,30.03,SE,127,0.0,0.0,98,0.00,,,0.00,Wunderground v.1.15,2013-01-28 02:31:00,
2013-01-27 20:36:00,47.3,46.5,30.02,ESE,103,0.0,0.0,97,0.00,,,0.00,Wunderground v.1.15,2013-01-28 02:36:00,
2013-01-27 20:41:00,47.5,46.7,30.02,ESE,109,1.0,1.0,97,0.00,,,0.00,Wunderground v.1.15,2013-01-28 02:41:00,
2013-01-27 20:51:00,47.6,46.5,30.02,East,96,0.0,0.0,96,0.00,,,0.00,Wunderground v.1.15,2013-01-28 02:51:00,
2013-01-27 20:56:00,47.6,46.5,30.02,SSW,208,0.0,0.0,96,0.00,,,0.00,Wunderground v.1.15,2013-01-28 02:56:00,
2013-01-27 21:01:00,47.5,46.4,30.02,ESE,103,0.0,0.0,96,0.00,,,0.00,Wunderground v.1.15,2013-01-28 03:01:00,
2013-01-27 21:06:00,47.5,46.4,30.02,ESE,115,0.0,0.0,96,0.00,,,0.00,Wunderground v.1.15,2013-01-28 03:06:00,
2013-01-27 21:11:00,47.5,46.4,30.03,ESE,115,0.0,0.0,96,0.00,,,0.00,Wunderground v.1.15,2013-01-28 03:11:00,
2013-01-27 21:21:00,47.6,46.5,30.03,ESE,120,0.0,0.0,96,0.00,,,0.00,Wunderground v.1.15,2013-01-28 03:21:00,
2013-01-27 21:26:00,47.6,46.5,30.03,ESE,115,0.0,0.0,96,0.00,,,0.00,Wunderground v.1.15,2013-01-28 03:26:00,
2013-01-27 21:31:00,47.6,46.5,30.03,SSW,197,0.0,0.0,96,0.00,,,0.00,Wunderground v.1.15,2013-01-28 03:31:00,
2013-01-27 21:36:00,47.6,46.5,30.02,South,186,0.0,0.0,96,0.00,,,0.00,Wunderground v.1.15,2013-01-28 03:36:00,
2013-01-27 21:41:00,47.6,46.5,30.02,South,186,0.0,0.0,96,0.00,,,0.00,Wunderground v.1.15,2013-01-28 03:41:00,
2013-01-27 21:51:00,47.5,46.4,30.02,East,95,0.0,0.0,96,0.00,,,0.00,Wunderground v.1.15,2013-01-28 03:51:00,
2013-01-27 21:56:00,47.5,46.4,30.02,ESE,103,0.0,0.0,96,0.00,,,0.00,Wunderground v.1.15,2013-01-28 03:56:00,
2013-01-27 22:01:00,47.1,45.7,30.02,ESE,103,0.0,0.0,95,0.00,,,0.00,Wunderground v.1.15,2013-01-28 04:01:00,
2013-01-27 22:06:00,46.9,45.8,30.02,East,101,0.0,0.0,96,0.00,,,0.00,Wunderground v.1.15,2013-01-28 04:06:00,
2013-01-27 22:11:00,46.9,45.8,30.02,East,101,0.0,0.0,96,0.00,,,0.00,Wunderground v.1.15,2013-01-28 04:11:00,
2013-01-27 22:16:00,47.1,46.0,30.02,ESE,109,0.0,0.0,96,0.00,,,0.00,Wunderground v.1.15,2013-01-28 04:16:00,
2013-01-27 22:21:00,47.2,46.1,30.02,ESE,103,0.0,1.0,96,0.00,,,0.00,Wunderground v.1.15,2013-01-28 04:21:00,
2013-01-27 22:26:00,47.2,46.1,30.02,East,95,0.0,1.0,96,0.00,,,0.00,Wunderground v.1.15,2013-01-28 04:26:00,
2013-01-27 22:31:00,47.3,46.2,30.02,East,94,0.0,0.0,96,0.00,,,0.00,Wunderground v.1.15,2013-01-28 04:31:00,
2013-01-27 22:36:00,47.1,46.0,30.02,East,95,0.0,0.0,96,0.00,,,0.00,Wunderground v.1.15,2013-01-28 04:36:00,
2013-01-27 22:41:00,47.2,46.4,30.02,East,95,0.0,0.0,97,0.00,,,0.00,Wunderground v.1.15,2013-01-28 04:41:00,
2013-01-27 22:46:00,47.2,46.1,30.02,East,95,0.0,0.0,96,0.00,,,0.00,Wunderground v.1.15,2013-01-28 04:46:00,
2013-01-27 22:51:00,47.2,46.1,30.02,East,95,0.0,0.0,96,0.00,,,0.00,Wunderground v.1.15,2013-01-28 04:51:00,
2013-01-27 23:01:00,47.0,45.9,30.02,East,95,0.0,0.0,96,0.00,,,0.00,Wunderground v.1.15,2013-01-28 05:01:00,
2013-01-27 23:11:00,46.9,46.1,30.02,East,95,0.0,0.0,97,0.00,,,0.00,Wunderground v.1.15,2013-01-28 05:11:00,
2013-01-27 23:16:00,46.9,46.1,30.02,East,95,0.0,0.0,97,0.00,,,0.00,Wunderground v.1.15,2013-01-28 05:16:00,
2013-01-27 23:26:00,46.8,46.0,30.02,East,94,0.0,0.0,97,0.00,,,0.00,Wunderground v.1.15,2013-01-28 05:26:00,
2013-01-27 23:31:00,46.8,46.0,30.02,East,94,0.0,0.0,97,0.00,,,0.00,Wunderground v.1.15,2013-01-28 05:31:00,
2013-01-27 23:36:00,46.7,45.6,30.02,East,95,0.0,0.0,96,0.00,,,0.00,Wunderground v.1.15,2013-01-28 05:36:00,
2013-01-27 23:46:00,46.5,45.7,30.01,East,95,0.0,0.0,97,0.00,,,0.00,Wunderground v.1.15,2013-01-28 05:46:00,
2013-01-27 23:51:00,46.8,46.0,30.01,East,95,0.0,0.0,97,0.00,,,0.00,Wunderground v.1.15,2013-01-28 05:51:00,
2013-01-27 23:56:00,46.7,45.9,30.02,East,95,0.0,0.0,97,0.00,,,0.00,Wunderground v.1.15,2013-01-28 05:56:00,